Location: Gallinara
(44.0333°N, 8.2333°E)
Time: 06:09:42
(UTC+00:00)

Cosmos 921 Rocket - Pass Details

Date: 25 September 2020
Orbit: 572 x 632 km, 75.8° (Epoch: 23 October)

Event Time Altitude Azimuth Distance (km) Brightness Sun altitude
Exits shadow 03:05:07 25° 340° (NNW) 1,172 4.5 -24.1°
Drops below altitude 10° 03:07:18 10° 2° (N) 1,892 5.8 -23.7°
Sets 03:09:40 0° 11° (N) 2,800 6.9 -23.3°
